Kenai, AK

4:53 AM AKST on December 08, 2019 (GMT -0900)
Kenai Municipal

Weather History for PAEN - October, 2019

Change the Weather History Date:

Tuesday, October 1, 2019

  Actual Average Record
Temperature  
Mean Temperature 49 °F -  
Max Temperature 53 °F 49 °F 63 °F (2003)
Min Temperature 43 °F 34 °F 22 °F (1977)
Degree Days  
Heating Degree Days 16    
Moisture  
Dew Point 38 °F    
Average Humidity 68    
Maximum Humidity 82    
Minimum Humidity 54    
Precipitation  
Precipitation 0.28 in - - ()
Sea Level Pressure  
Sea Level Pressure 29.47 in    
Wind  
Wind Speed 20 mph (North)    
Max Wind Speed 33 mph    
Max Gust Speed 43 mph    
Visibility 10 miles    
Events Rain    
Averages and records for this station are not official NWS values.
T = Trace of Precipitation, MM = Missing Value Source: NWS Daily Summary

Daily Weather History Graph

Daily Weather History Graph

Search for Another Location

Airport or City:

Astronomy

Oct. 01, 2019 Rise Set
Actual Time 8:10 AM AKDT 7:36 PM AKDT
Civil Twilight 7:28 AM AKDT 8:18 PM AKDT
Nautical Twilight 6:39 AM AKDT 9:08 PM AKDT
Astronomical Twilight 5:46 AM AKDT 10:00 PM AKDT
Moon 12:30 PM AKDT (10/1) 9:00 PM AKDT (10/1)
Length of Visible Light 12h 50m
Length of Day
11h 25m
Waxing Crescent, 13% of the Moon is Illuminated
Oct 1
Waxing Crescent
Oct 5
First Quarter
Oct 13
Full
Oct 21
Last Quarter
Oct 27
New

Hourly Weather History & Observations

Time (AKDT) Temp. Windchill Dew Point Humidity Pressure Visibility Wind Dir Wind Speed Gust Speed Precip Events Conditions
12:53 AM 48.9 °F - 37.9 °F 66% 29.47 in 10.0 mi North 23.0 mph 33.4 mph 0.02 in Rain Light Rain
1:53 AM 48.9 °F - 37.9 °F 66% 29.43 in 10.0 mi North 19.6 mph 31.1 mph 0.06 in Rain Light Rain
2:53 AM 48.0 °F - 37.9 °F 68% 29.40 in 9.0 mi North 19.6 mph - 0.04 in Rain Rain
3:53 AM 50.0 °F - 35.1 °F 57% 29.37 in 10.0 mi North 18.4 mph 29.9 mph 0.01 in Rain Light Rain
4:53 AM 48.0 °F - 37.0 °F 66% 29.33 in 10.0 mi North 21.9 mph - 0.05 in Rain Light Rain
5:53 AM 46.9 °F - 37.0 °F 68% 29.30 in 10.0 mi North 27.6 mph 41.4 mph 0.04 in Rain Light Rain
6:53 AM 46.9 °F - 37.9 °F 71% 29.29 in 10.0 mi North 28.8 mph 41.4 mph 0.04 in Rain Light Rain
7:53 AM 48.9 °F - 43.0 °F 80% 29.29 in 10.0 mi North 33.4 mph 42.6 mph 0.02 in   Overcast
8:53 AM 48.9 °F - 37.0 °F 64% 29.30 in 10.0 mi North 32.2 mph 41.4 mph 0.00 in   Overcast
9:53 AM 50.0 °F - 36.0 °F 59% 29.35 in 10.0 mi North 21.9 mph 33.4 mph 0.00 in Rain Light Rain
10:53 AM 52.0 °F - 36.0 °F 54% 29.37 in 10.0 mi North 19.6 mph 34.5 mph 0.00 in   Mostly Cloudy
11:53 AM 52.0 °F - 36.0 °F 54% 29.40 in 10.0 mi North 17.3 mph 26.5 mph N/A   Overcast
12:53 PM 51.1 °F - 37.9 °F 61% 29.44 in 10.0 mi North 19.6 mph - N/A   Overcast
1:53 PM 51.1 °F - 39.0 °F 63% 29.48 in 10.0 mi North 25.3 mph 33.4 mph N/A   Partly Cloudy
2:53 PM 51.1 °F - 41.0 °F 68% 29.51 in 10.0 mi North 19.6 mph 26.5 mph N/A   Clear
3:53 PM 50.0 °F - 39.0 °F 66% 29.53 in 10.0 mi North 20.7 mph 26.5 mph N/A   Overcast
4:53 PM 50.0 °F - 39.0 °F 66% 29.56 in 10.0 mi North 13.8 mph - N/A   Overcast
5:53 PM 50.0 °F - 39.9 °F 68% 29.58 in 10.0 mi North 10.4 mph - N/A   Partly Cloudy
6:53 PM 48.9 °F - 39.9 °F 71% 29.60 in 10.0 mi North 12.7 mph - N/A   Mostly Cloudy
7:53 PM 46.9 °F - 39.9 °F 77% 29.62 in 10.0 mi North 9.2 mph - N/A   Scattered Clouds
8:53 PM 46.0 °F 43.1 °F 39.0 °F 76% 29.63 in 10.0 mi NNW 5.8 mph - N/A   Overcast
9:53 PM 48.0 °F - 39.9 °F 74% 29.66 in 10.0 mi North 6.9 mph - N/A   Overcast
10:53 PM 46.0 °F 42.5 °F 39.0 °F 76% 29.67 in 10.0 mi NNW 6.9 mph - 0.00 in   Overcast
11:53 PM 43.0 °F 41.3 °F 37.9 °F 82% 29.68 in 10.0 mi North 3.5 mph - N/A   Clear